Juliana Airport, Sint Maarten

2:36 AM AST on April 28, 2017 (GMT -0400)
Princess Juliana International

Weather History for TNCM - January, 2013

Change the Weather History Date:

Monday, January 21, 2013

  Actual Average Record
Temperature  
Mean Temperature 79 °F -  
Max Temperature 83 °F 81 °F 86 °F (2000)
Min Temperature 75 °F 72 °F 69 °F (2000)
Cooling Degree Days 14    
Growing Degree Days 29 (Base 50)    
Moisture  
Dew Point 70 °F    
Average Humidity 73    
Maximum Humidity 83    
Minimum Humidity 53    
Precipitation  
Precipitation 0.20 in 0.06 in - ()
Sea Level Pressure  
Sea Level Pressure 30.01 in    
Wind  
Wind Speed 8 mph ()    
Max Wind Speed 14 mph    
Max Gust Speed -    
Visibility 7.5 miles    
Events Rain    
Averages and records for this station are not official NWS values.
T = Trace of Precipitation, MM = Missing Value Source: Averaged Metar Reports

Daily Weather History Graph

Daily Weather History Graph

Search for Another Location

Airport or City:

Trip Planner

Search our weather history database for the weather conditions in past years. The results will help you decide how hot, cold, wet, or windy it might be!

Date:

Astronomy

Jan. 21, 2013 Rise Set
Actual Time 6:47 AM AST 6:00 PM AST
Civil Twilight 6:23 AM AST 6:23 PM AST
Nautical Twilight 5:57 AM AST 6:50 PM AST
Astronomical Twilight 5:31 AM AST 7:16 PM AST
Moon 1:40 PM AST (1/21) 2:10 AM AST (1/21)
Length of Visible Light 12h 00m
Length of Day
11h 13m
Waxing Gibbous, 74% of the Moon is Illuminated
Jan 21
Waxing Gibbous
Jan 27
Full
Feb 3
Last Quarter
Feb 10
New
Feb 17
First Quarter

Hourly Weather History & Observations

Time (AST) Temp. Heat Index Dew Point Humidity Pressure Visibility Wind Dir Wind Speed Gust Speed Precip Events Conditions
12:00 AM 77.0 °F - 69.8 °F 78% 30.04 in 6.2 mi East 8.1 mph - N/A   Scattered Clouds
1:00 AM 77.0 °F - 69.8 °F 78% 30.04 in 6.2 mi East 8.1 mph - N/A   Partly Cloudy
2:00 AM 76 °F - 69 °F 73% 30.02 in 19 mi East 5.8 mph - -   Partly Cloudy
2:00 AM 77.0 °F - 69.8 °F 78% 30.01 in 6.2 mi East 5.8 mph - N/A   Scattered Clouds
3:00 AM 77.0 °F - 68.0 °F 74% 29.98 in 6.2 mi Variable 2.3 mph - N/A   Scattered Clouds
4:00 AM 77.0 °F - 69.8 °F 78% 29.98 in 6.2 mi ESE 9.2 mph - N/A   Scattered Clouds
5:00 AM 75 °F - 69 °F 76% 29.99 in 7 mi East 6.9 mph - - Rain Light Rain Showers
5:00 AM 75.2 °F - 69.8 °F 83% 29.98 in 6.2 mi East 8.1 mph - N/A Rain Light Rain Showers
6:00 AM 77.0 °F - 69.8 °F 78% 29.98 in 6.2 mi East 6.9 mph - N/A   Partly Cloudy
7:00 AM 77.0 °F - 69.8 °F 78% 30.01 in 6.2 mi East 8.1 mph - N/A   Scattered Clouds
7:41 AM 77.0 °F - 69.8 °F 78% 30.01 in 3.7 mi East 8.1 mph - N/A Rain Rain Showers
8:00 AM 77 °F - 71 °F 76% 30.04 in 22 mi East 10.4 mph - - Rain Light Rain Showers
8:00 AM 77.0 °F - 71.6 °F 83% 30.04 in 6.2 mi East 10.4 mph - N/A   Scattered Clouds
9:00 AM 78.8 °F - 69.8 °F 74% 30.04 in 6.2 mi East 11.5 mph - N/A   Partly Cloudy
10:00 AM 80.6 °F 83.9 °F 69.8 °F 70% 30.04 in 6.2 mi ESE 11.5 mph - N/A   Scattered Clouds
11:00 AM 81 °F - 69 °F 59% 30.04 in 40 mi ESE 12.7 mph - -   Partly Cloudy
11:00 AM 80.6 °F 83.9 °F 69.8 °F 70% 30.04 in 6.2 mi ESE 12.7 mph - N/A   Scattered Clouds
12:00 PM 80.6 °F 83.9 °F 69.8 °F 70% 30.01 in 6.2 mi ESE 13.8 mph - N/A   Scattered Clouds
1:00 PM 80.6 °F 83.9 °F 69.8 °F 70% 30.01 in 6.2 mi East 12.7 mph - N/A   Scattered Clouds
2:00 PM 83 °F - 69 °F 53% 29.99 in 40 mi ESE 13.8 mph - -   Mostly Cloudy
2:00 PM 82.4 °F 86.3 °F 69.8 °F 66% 29.98 in 6.2 mi East 13.8 mph - N/A   Scattered Clouds
3:00 PM 80.6 °F 83.2 °F 68.0 °F 65% 29.98 in 6.2 mi ESE 10.4 mph - N/A   Scattered Clouds
4:00 PM 78.8 °F - 71.6 °F 78% 29.98 in 6.2 mi SE 6.9 mph - N/A   Scattered Clouds
5:00 PM 80 °F - 69 °F 62% 29.99 in 25 mi ESE 9.2 mph - -   Partly Cloudy
5:00 PM 80.6 °F 83.9 °F 69.8 °F 70% 29.98 in 6.2 mi ESE 9.2 mph - N/A   Scattered Clouds
6:00 PM 78.8 °F - 69.8 °F 74% 29.98 in 6.2 mi ESE 8.1 mph - N/A   Partly Cloudy
7:00 PM 78.8 °F - 69.8 °F 74% 30.01 in 6.2 mi ESE 6.9 mph - N/A   Partly Cloudy
8:00 PM 78 °F - 69 °F 68% 30.04 in 19 mi ESE 8.1 mph - -   Partly Cloudy
8:00 PM 78.8 °F - 69.8 °F 74% 30.04 in 6.2 mi East 8.1 mph - N/A   Partly Cloudy
9:00 PM 77.0 °F - 69.8 °F 78% 30.04 in 6.2 mi ESE 5.8 mph - N/A   Partly Cloudy
10:00 PM 78.8 °F - 69.8 °F 74% 30.04 in 6.2 mi East 4.6 mph - N/A   Partly Cloudy
11:00 PM 78 °F - 69 °F 68% 30.05 in 19 mi ESE 4.6 mph - -   Scattered Clouds
11:00 PM 77.0 °F - 69.8 °F 78% 30.04 in 6.2 mi East 4.6 mph - N/A   Partly Cloudy